owner,sensor,date,latitude,longitude,air_pressure(mBar),qcFlag 
SCCF RECON,ioos:station:SCCF:16:1,2017-11-01T04:30:00Z,26.4345,-81.9647,1019.1,1111122 
SCCF RECON,ioos:station:SCCF:16:1,2017-11-01T05:30:00Z,26.4345,-81.9647,1018.6,1111122 
SCCF RECON,ioos:station:SCCF:16:1,2017-11-01T06:30:00Z,26.4345,-81.9647,1018.6,1111122 
SCCF RECON,ioos:station:SCCF:16:1,2017-11-01T07:30:00Z,26.4345,-81.9647,1018.3,1111122 
SCCF RECON,ioos:station:SCCF:16:1,2017-11-01T08:30:00Z,26.4345,-81.9647,1017.9,1111122 
SCCF RECON,ioos:station:SCCF:16:1,2017-11-01T09:30:00Z,26.4345,-81.9647,1018.3,1111122 
SCCF RECON,ioos:station:SCCF:16:1,2017-11-01T10:30:00Z,26.4345,-81.9647,1018.5,1111122 
SCCF RECON,ioos:station:SCCF:16:1,2017-11-01T11:30:00Z,26.4345,-81.9647,1019.0,1111122 
SCCF RECON,ioos:station:SCCF:16:1,2017-11-01T12:30:00Z,26.4345,-81.9647,1019.4,1111122 
SCCF RECON,ioos:station:SCCF:16:1,2017-11-01T13:30:00Z,26.4345,-81.9647,1019.8,1111122 
SCCF RECON,ioos:station:SCCF:16:1,2017-11-01T14:30:00Z,26.4345,-81.9647,1020.2,1111122 
SCCF RECON,ioos:station:SCCF:16:1,2017-11-01T15:30:00Z,26.4345,-81.9647,1019.9,1111122 
SCCF RECON,ioos:station:SCCF:16:1,2017-11-01T16:30:00Z,26.4345,-81.9647,1019.4,1111122 
SCCF RECON,ioos:station:SCCF:16:1,2017-11-01T17:30:00Z,26.4345,-81.9647,1018.7,1111122 
SCCF RECON,ioos:station:SCCF:16:1,2017-11-01T18:30:00Z,26.4345,-81.9647,1017.4,1111122 
SCCF RECON,ioos:station:SCCF:16:1,2017-11-01T19:30:00Z,26.4345,-81.9647,1016.9,1111122 
SCCF RECON,ioos:station:SCCF:16:1,2017-11-01T20:30:00Z,26.4345,-81.9647,1016.8,1111122 
SCCF RECON,ioos:station:SCCF:16:1,2017-11-01T21:30:00Z,26.4345,-81.9647,1016.7,1111122 
SCCF RECON,ioos:station:SCCF:16:1,2017-11-01T22:30:00Z,26.4345,-81.9647,1017.1,1111122 
SCCF RECON,ioos:station:SCCF:16:1,2017-11-02T04:30:00Z,26.4345,-81.9647,1019.6,1111122 
SCCF RECON,ioos:station:SCCF:16:1,2017-11-02T05:30:00Z,26.4345,-81.9647,1019.2,1111122 
SCCF RECON,ioos:station:SCCF:16:1,2017-11-02T06:30:00Z,26.4345,-81.9647,1018.6,1111122 
SCCF RECON,ioos:station:SCCF:16:1,2017-11-02T07:30:00Z,26.4345,-81.9647,1018.3,1111122 
SCCF RECON,ioos:station:SCCF:16:1,2017-11-02T08:30:00Z,26.4345,-81.9647,1018.1,1111122 
SCCF RECON,ioos:station:SCCF:16:1,2017-11-02T09:30:00Z,26.4345,-81.9647,1018.1,1111122 
SCCF RECON,ioos:station:SCCF:16:1,2017-11-02T10:30:00Z,26.4345,-81.9647,1018.3,1111122 
SCCF RECON,ioos:station:SCCF:16:1,2017-11-02T11:30:00Z,26.4345,-81.9647,1018.8,1111122 
SCCF RECON,ioos:station:SCCF:16:1,2017-11-02T12:30:00Z,26.4345,-81.9647,1019.4,1111122 
SCCF RECON,ioos:station:SCCF:16:1,2017-11-02T13:30:00Z,26.4345,-81.9647,1020.0,1111122 
SCCF RECON,ioos:station:SCCF:16:1,2017-11-02T14:30:00Z,26.4345,-81.9647,1020.5,1111122 
SCCF RECON,ioos:station:SCCF:16:1,2017-11-02T15:30:00Z,26.4345,-81.9647,1020.6,1111122 
SCCF RECON,ioos:station:SCCF:16:1,2017-11-02T16:30:00Z,26.4345,-81.9647,1020.2,1111122 
SCCF RECON,ioos:station:SCCF:16:1,2017-11-02T17:30:00Z,26.4345,-81.9647,1019.5,1111122 
SCCF RECON,ioos:station:SCCF:16:1,2017-11-02T18:30:00Z,26.4345,-81.9647,1018.6,1111122 
SCCF RECON,ioos:station:SCCF:16:1,2017-11-02T19:30:00Z,26.4345,-81.9647,1018.1,1111122 
SCCF RECON,ioos:station:SCCF:16:1,2017-11-02T20:30:00Z,26.4345,-81.9647,1017.7,1111122 
SCCF RECON,ioos:station:SCCF:16:1,2017-11-02T21:30:00Z,26.4345,-81.9647,1017.7,1111122 
SCCF RECON,ioos:station:SCCF:16:1,2017-11-02T22:30:00Z,26.4345,-81.9647,1017.7,1111122 
SCCF RECON,ioos:station:SCCF:16:1,2017-11-03T04:30:00Z,26.4345,-81.9647,1019.1,1111122 
SCCF RECON,ioos:station:SCCF:16:1,2017-11-03T05:30:00Z,26.4345,-81.9647,1018.5,1111122 
SCCF RECON,ioos:station:SCCF:16:1,2017-11-03T06:30:00Z,26.4345,-81.9647,1018.4,1111122 
SCCF RECON,ioos:station:SCCF:16:1,2017-11-03T07:30:00Z,26.4345,-81.9647,1018.2,1111122 
SCCF RECON,ioos:station:SCCF:16:1,2017-11-03T08:30:00Z,26.4345,-81.9647,1017.9,1111122 
SCCF RECON,ioos:station:SCCF:16:1,2017-11-03T09:30:00Z,26.4345,-81.9647,1017.9,1111122 
SCCF RECON,ioos:station:SCCF:16:1,2017-11-03T10:30:00Z,26.4345,-81.9647,1018.1,1111122 
SCCF RECON,ioos:station:SCCF:16:1,2017-11-03T11:30:00Z,26.4345,-81.9647,1018.1,1111122 
SCCF RECON,ioos:station:SCCF:16:1,2017-11-03T12:30:00Z,26.4345,-81.9647,1018.7,1111122 
SCCF RECON,ioos:station:SCCF:16:1,2017-11-03T13:30:00Z,26.4345,-81.9647,1019.2,1111122 
SCCF RECON,ioos:station:SCCF:16:1,2017-11-03T14:30:00Z,26.4345,-81.9647,1019.5,1111122 
SCCF RECON,ioos:station:SCCF:16:1,2017-11-03T15:30:00Z,26.4345,-81.9647,1019.2,1111122 
SCCF RECON,ioos:station:SCCF:16:1,2017-11-03T16:30:00Z,26.4345,-81.9647,1018.6,1111122 
SCCF RECON,ioos:station:SCCF:16:1,2017-11-03T17:30:00Z,26.4345,-81.9647,1017.7,1111122 
SCCF RECON,ioos:station:SCCF:16:1,2017-11-03T18:30:00Z,26.4345,-81.9647,1016.9,1111122 
SCCF RECON,ioos:station:SCCF:16:1,2017-11-03T19:30:00Z,26.4345,-81.9647,1016.3,1111122 
SCCF RECON,ioos:station:SCCF:16:1,2017-11-03T20:30:00Z,26.4345,-81.9647,1016.3,1111122 
SCCF RECON,ioos:station:SCCF:16:1,2017-11-03T21:30:00Z,26.4345,-81.9647,1016.3,1111122 
SCCF RECON,ioos:station:SCCF:16:1,2017-11-03T22:30:00Z,26.4345,-81.9647,1016.1,1111122 
SCCF RECON,ioos:station:SCCF:16:1,2017-11-04T04:30:00Z,26.4345,-81.9647,1016.9,1111122 
SCCF RECON,ioos:station:SCCF:16:1,2017-11-04T05:30:00Z,26.4345,-81.9647,1016.6,1111122 
SCCF RECON,ioos:station:SCCF:16:1,2017-11-04T06:30:00Z,26.4345,-81.9647,1016.4,1111122 
SCCF RECON,ioos:station:SCCF:16:1,2017-11-04T07:30:00Z,26.4345,-81.9647,1015.8,1111122 
SCCF RECON,ioos:station:SCCF:16:1,2017-11-04T08:30:00Z,26.4345,-81.9647,1015.5,1111122 
SCCF RECON,ioos:station:SCCF:16:1,2017-11-04T09:30:00Z,26.4345,-81.9647,1015.6,1111122 
SCCF RECON,ioos:station:SCCF:16:1,2017-11-04T10:30:00Z,26.4345,-81.9647,1016.0,1111122 
SCCF RECON,ioos:station:SCCF:16:1,2017-11-04T11:30:00Z,26.4345,-81.9647,1016.5,1111122 
SCCF RECON,ioos:station:SCCF:16:1,2017-11-04T12:30:00Z,26.4345,-81.9647,1016.8,1111122 
SCCF RECON,ioos:station:SCCF:16:1,2017-11-04T13:30:00Z,26.4345,-81.9647,1017.3,1111122 
SCCF RECON,ioos:station:SCCF:16:1,2017-11-04T14:30:00Z,26.4345,-81.9647,1017.4,1111122 
SCCF RECON,ioos:station:SCCF:16:1,2017-11-04T15:30:00Z,26.4345,-81.9647,1017.1,1111122 
SCCF RECON,ioos:station:SCCF:16:1,2017-11-04T16:30:00Z,26.4345,-81.9647,1016.6,1111122 
SCCF RECON,ioos:station:SCCF:16:1,2017-11-04T17:30:00Z,26.4345,-81.9647,1015.6,1111122 
SCCF RECON,ioos:station:SCCF:16:1,2017-11-04T18:30:00Z,26.4345,-81.9647,1014.6,1111122 
SCCF RECON,ioos:station:SCCF:16:1,2017-11-04T19:30:00Z,26.4345,-81.9647,1014.2,1111122 
SCCF RECON,ioos:station:SCCF:16:1,2017-11-04T20:30:00Z,26.4345,-81.9647,1014.0,1111122 
SCCF RECON,ioos:station:SCCF:16:1,2017-11-04T21:30:00Z,26.4345,-81.9647,1014.1,1111122 
SCCF RECON,ioos:station:SCCF:16:1,2017-11-04T22:30:00Z,26.4345,-81.9647,1014.3,1111122 
SCCF RECON,ioos:station:SCCF:16:1,2017-11-05T04:30:00Z,26.4345,-81.9647,1016.1,1111122 
SCCF RECON,ioos:station:SCCF:16:1,2017-11-05T05:30:00Z,26.4345,-81.9647,1015.8,1111122 
SCCF RECON,ioos:station:SCCF:16:1,2017-11-05T06:30:00Z,26.4345,-81.9647,1015.7,1111122 
SCCF RECON,ioos:station:SCCF:16:1,2017-11-05T07:30:00Z,26.4345,-81.9647,1015.2,1111122 
SCCF RECON,ioos:station:SCCF:16:1,2017-11-05T08:30:00Z,26.4345,-81.9647,1015.3,1111122 
SCCF RECON,ioos:station:SCCF:16:1,2017-11-05T09:30:00Z,26.4345,-81.9647,1015.6,1111122 
SCCF RECON,ioos:station:SCCF:16:1,2017-11-05T10:30:00Z,26.4345,-81.9647,1015.8,1111122 
SCCF RECON,ioos:station:SCCF:16:1,2017-11-05T11:30:00Z,26.4345,-81.9647,1016.3,1111122 
SCCF RECON,ioos:station:SCCF:16:1,2017-11-05T12:30:00Z,26.4345,-81.9647,1016.4,1111122 
SCCF RECON,ioos:station:SCCF:16:1,2017-11-05T13:30:00Z,26.4345,-81.9647,1016.9,1111122 
SCCF RECON,ioos:station:SCCF:16:1,2017-11-05T14:30:00Z,26.4345,-81.9647,1016.9,1111122 
SCCF RECON,ioos:station:SCCF:16:1,2017-11-05T15:30:00Z,26.4345,-81.9647,1016.9,1111122 
SCCF RECON,ioos:station:SCCF:16:1,2017-11-05T16:30:00Z,26.4345,-81.9647,1016.4,1111122 
SCCF RECON,ioos:station:SCCF:16:1,2017-11-05T17:30:00Z,26.4345,-81.9647,1015.8,1111122 
SCCF RECON,ioos:station:SCCF:16:1,2017-11-05T18:30:00Z,26.4345,-81.9647,1015.0,1111122 
SCCF RECON,ioos:station:SCCF:16:1,2017-11-05T19:30:00Z,26.4345,-81.9647,1014.6,1111122 
SCCF RECON,ioos:station:SCCF:16:1,2017-11-05T20:30:00Z,26.4345,-81.9647,1014.5,1111122 
SCCF RECON,ioos:station:SCCF:16:1,2017-11-05T21:30:00Z,26.4345,-81.9647,1014.6,1111122 
SCCF RECON,ioos:station:SCCF:16:1,2017-11-05T22:30:00Z,26.4345,-81.9647,1014.9,1111122 
SCCF RECON,ioos:station:SCCF:16:1,2017-11-06T05:30:00Z,26.4345,-81.9647,1016.3,1111122 
SCCF RECON,ioos:station:SCCF:16:1,2017-11-06T06:30:00Z,26.4345,-81.9647,1016.1,1111122 
SCCF RECON,ioos:station:SCCF:16:1,2017-11-06T07:30:00Z,26.4345,-81.9647,1015.7,1111122 
SCCF RECON,ioos:station:SCCF:16:1,2017-11-06T08:30:00Z,26.4345,-81.9647,1015.6,1111122 
SCCF RECON,ioos:station:SCCF:16:1,2017-11-06T09:30:00Z,26.4345,-81.9647,1015.7,1111122 
SCCF RECON,ioos:station:SCCF:16:1,2017-11-06T10:30:00Z,26.4345,-81.9647,1016.2,1111122 
SCCF RECON,ioos:station:SCCF:16:1,2017-11-06T11:30:00Z,26.4345,-81.9647,1016.7,1111122 
SCCF RECON,ioos:station:SCCF:16:1,2017-11-06T12:30:00Z,26.4345,-81.9647,1016.9,1111122 
SCCF RECON,ioos:station:SCCF:16:1,2017-11-06T13:30:00Z,26.4345,-81.9647,1017.6,1111122 
SCCF RECON,ioos:station:SCCF:16:1,2017-11-06T14:30:00Z,26.4345,-81.9647,1017.9,1111122 
SCCF RECON,ioos:station:SCCF:16:1,2017-11-06T15:30:00Z,26.4345,-81.9647,1018.2,1111122 
SCCF RECON,ioos:station:SCCF:16:1,2017-11-06T16:30:00Z,26.4345,-81.9647,1018.0,1111122 
SCCF RECON,ioos:station:SCCF:16:1,2017-11-06T17:30:00Z,26.4345,-81.9647,1017.2,1111122 
SCCF RECON,ioos:station:SCCF:16:1,2017-11-06T18:30:00Z,26.4345,-81.9647,1016.1,1111122 
SCCF RECON,ioos:station:SCCF:16:1,2017-11-06T19:30:00Z,26.4345,-81.9647,1015.3,1111122 
SCCF RECON,ioos:station:SCCF:16:1,2017-11-06T20:30:00Z,26.4345,-81.9647,1014.9,1111122 
SCCF RECON,ioos:station:SCCF:16:1,2017-11-06T21:30:00Z,26.4345,-81.9647,1014.8,1111122 
SCCF RECON,ioos:station:SCCF:16:1,2017-11-06T22:30:00Z,26.4345,-81.9647,1015.3,1111122 
SCCF RECON,ioos:station:SCCF:16:1,2017-11-07T05:30:00Z,26.4345,-81.9647,1016.9,1111122 
SCCF RECON,ioos:station:SCCF:16:1,2017-11-07T06:30:00Z,26.4345,-81.9647,1016.8,1111122 
SCCF RECON,ioos:station:SCCF:16:1,2017-11-07T07:30:00Z,26.4345,-81.9647,1016.4,1111122 
SCCF RECON,ioos:station:SCCF:16:1,2017-11-07T08:30:00Z,26.4345,-81.9647,1016.4,1111122 
SCCF RECON,ioos:station:SCCF:16:1,2017-11-07T09:30:00Z,26.4345,-81.9647,1016.3,1111122 
SCCF RECON,ioos:station:SCCF:16:1,2017-11-07T10:30:00Z,26.4345,-81.9647,1016.8,1111122 
SCCF RECON,ioos:station:SCCF:16:1,2017-11-07T11:30:00Z,26.4345,-81.9647,1017.2,1111122 
SCCF RECON,ioos:station:SCCF:16:1,2017-11-07T12:30:00Z,26.4345,-81.9647,1017.5,1111122 
SCCF RECON,ioos:station:SCCF:16:1,2017-11-07T13:30:00Z,26.4345,-81.9647,1018.1,1111122 
SCCF RECON,ioos:station:SCCF:16:1,2017-11-07T14:30:00Z,26.4345,-81.9647,1017.9,1111122 
SCCF RECON,ioos:station:SCCF:16:1,2017-11-07T17:00:00Z,26.4345,-81.9647,1017.1,1111122 
SCCF RECON,ioos:station:SCCF:16:1,2017-11-07T17:30:00Z,26.4345,-81.9647,1016.4,1111122 
SCCF RECON,ioos:station:SCCF:16:1,2017-11-07T19:00:00Z,26.4345,-81.9647,1015.3,1111122 
SCCF RECON,ioos:station:SCCF:16:1,2017-11-07T19:30:00Z,26.4345,-81.9647,1014.6,1111122 
SCCF RECON,ioos:station:SCCF:16:1,2017-11-07T20:30:00Z,26.4345,-81.9647,1014.3,1111122 
SCCF RECON,ioos:station:SCCF:16:1,2017-11-07T22:00:00Z,26.4345,-81.9647,1014.5,1111122 
SCCF RECON,ioos:station:SCCF:16:1,2017-11-07T23:00:00Z,26.4345,-81.9647,1014.6,1111122 
SCCF RECON,ioos:station:SCCF:16:1,2017-11-08T06:00:00Z,26.4345,-81.9647,1014.8,1111122 
SCCF RECON,ioos:station:SCCF:16:1,2017-11-08T07:00:00Z,26.4345,-81.9647,1015.1,1111122 
SCCF RECON,ioos:station:SCCF:16:1,2017-11-08T08:00:00Z,26.4345,-81.9647,1015.3,1111122 
SCCF RECON,ioos:station:SCCF:16:1,2017-11-08T09:00:00Z,26.4345,-81.9647,1015.3,1111122 
SCCF RECON,ioos:station:SCCF:16:1,2017-11-08T10:00:00Z,26.4345,-81.9647,1015.5,1111122 
SCCF RECON,ioos:station:SCCF:16:1,2017-11-08T10:30:00Z,26.4345,-81.9647,1015.3,1111122 
SCCF RECON,ioos:station:SCCF:16:1,2017-11-08T11:30:00Z,26.4345,-81.9647,1015.6,1111122 
SCCF RECON,ioos:station:SCCF:16:1,2017-11-08T12:30:00Z,26.4345,-81.9647,1016.5,1111122 
SCCF RECON,ioos:station:SCCF:16:1,2017-11-08T13:30:00Z,26.4345,-81.9647,1016.6,1111122 
SCCF RECON,ioos:station:SCCF:16:1,2017-11-08T14:30:00Z,26.4345,-81.9647,1016.9,1111122 
SCCF RECON,ioos:station:SCCF:16:1,2017-11-08T15:30:00Z,26.4345,-81.9647,1016.9,1111122 
SCCF RECON,ioos:station:SCCF:16:1,2017-11-08T16:30:00Z,26.4345,-81.9647,1016.3,1111122 
SCCF RECON,ioos:station:SCCF:16:1,2017-11-08T17:30:00Z,26.4345,-81.9647,1015.3,1111122 
SCCF RECON,ioos:station:SCCF:16:1,2017-11-08T18:30:00Z,26.4345,-81.9647,1014.3,1111122 
SCCF RECON,ioos:station:SCCF:16:1,2017-11-08T19:30:00Z,26.4345,-81.9647,1013.5,1111122 
SCCF RECON,ioos:station:SCCF:16:1,2017-11-08T20:30:00Z,26.4345,-81.9647,1013.3,1111122 
SCCF RECON,ioos:station:SCCF:16:1,2017-11-08T21:30:00Z,26.4345,-81.9647,1013.1,1111122 
SCCF RECON,ioos:station:SCCF:16:1,2017-11-08T22:30:00Z,26.4345,-81.9647,1013.5,1111122 
SCCF RECON,ioos:station:SCCF:16:1,2017-11-09T05:30:00Z,26.4345,-81.9647,1015.1,1111122 
SCCF RECON,ioos:station:SCCF:16:1,2017-11-09T06:30:00Z,26.4345,-81.9647,1015.0,1111122 
SCCF RECON,ioos:station:SCCF:16:1,2017-11-09T07:30:00Z,26.4345,-81.9647,1014.6,1111122 
SCCF RECON,ioos:station:SCCF:16:1,2017-11-09T08:30:00Z,26.4345,-81.9647,1014.5,1111122 
SCCF RECON,ioos:station:SCCF:16:1,2017-11-09T09:30:00Z,26.4345,-81.9647,1014.3,1111122 
SCCF RECON,ioos:station:SCCF:16:1,2017-11-09T10:30:00Z,26.4345,-81.9647,1014.5,1111122 
SCCF RECON,ioos:station:SCCF:16:1,2017-11-09T11:30:00Z,26.4345,-81.9647,1014.6,1111122 
SCCF RECON,ioos:station:SCCF:16:1,2017-11-09T12:30:00Z,26.4345,-81.9647,1015.5,1111122 
SCCF RECON,ioos:station:SCCF:16:1,2017-11-09T13:30:00Z,26.4345,-81.9647,1016.1,1111122 
SCCF RECON,ioos:station:SCCF:16:1,2017-11-09T14:30:00Z,26.4345,-81.9647,1016.1,1111122 
SCCF RECON,ioos:station:SCCF:16:1,2017-11-09T15:30:00Z,26.4345,-81.9647,1015.9,1111122 
SCCF RECON,ioos:station:SCCF:16:1,2017-11-09T16:30:00Z,26.4345,-81.9647,1015.2,1111122 
SCCF RECON,ioos:station:SCCF:16:1,2017-11-09T17:30:00Z,26.4345,-81.9647,1014.2,1111122 
SCCF RECON,ioos:station:SCCF:16:1,2017-11-09T18:30:00Z,26.4345,-81.9647,1013.7,1111122 
SCCF RECON,ioos:station:SCCF:16:1,2017-11-09T19:30:00Z,26.4345,-81.9647,1013.7,1111122 
SCCF RECON,ioos:station:SCCF:16:1,2017-11-09T20:30:00Z,26.4345,-81.9647,1013.3,1111122 
SCCF RECON,ioos:station:SCCF:16:1,2017-11-09T21:30:00Z,26.4345,-81.9647,1013.2,1111122 
SCCF RECON,ioos:station:SCCF:16:1,2017-11-09T22:30:00Z,26.4345,-81.9647,1013.5,1111122 
SCCF RECON,ioos:station:SCCF:16:1,2017-11-10T05:30:00Z,26.4345,-81.9647,1014.8,1111122 
SCCF RECON,ioos:station:SCCF:16:1,2017-11-10T06:30:00Z,26.4345,-81.9647,1014.6,1111122 
SCCF RECON,ioos:station:SCCF:16:1,2017-11-10T07:30:00Z,26.4345,-81.9647,1014.3,1111122 
SCCF RECON,ioos:station:SCCF:16:1,2017-11-10T08:30:00Z,26.4345,-81.9647,1014.2,1111122 
SCCF RECON,ioos:station:SCCF:16:1,2017-11-10T09:30:00Z,26.4345,-81.9647,1014.3,1111122 
SCCF RECON,ioos:station:SCCF:16:1,2017-11-10T10:30:00Z,26.4345,-81.9647,1014.6,1111122 
SCCF RECON,ioos:station:SCCF:16:1,2017-11-10T11:30:00Z,26.4345,-81.9647,1015.1,1111122 
SCCF RECON,ioos:station:SCCF:16:1,2017-11-10T12:30:00Z,26.4345,-81.9647,1015.8,1111122 
SCCF RECON,ioos:station:SCCF:16:1,2017-11-10T13:30:00Z,26.4345,-81.9647,1016.1,1111122 
SCCF RECON,ioos:station:SCCF:16:1,2017-11-10T14:30:00Z,26.4345,-81.9647,1016.6,1111122 
SCCF RECON,ioos:station:SCCF:16:1,2017-11-10T15:30:00Z,26.4345,-81.9647,1016.8,1111122 
SCCF RECON,ioos:station:SCCF:16:1,2017-11-10T16:30:00Z,26.4345,-81.9647,1016.3,1111122 
SCCF RECON,ioos:station:SCCF:16:1,2017-11-10T17:30:00Z,26.4345,-81.9647,1015.8,1111122 
SCCF RECON,ioos:station:SCCF:16:1,2017-11-10T18:30:00Z,26.4345,-81.9647,1015.0,1111122 
SCCF RECON,ioos:station:SCCF:16:1,2017-11-10T19:30:00Z,26.4345,-81.9647,1014.6,1111122 
SCCF RECON,ioos:station:SCCF:16:1,2017-11-10T20:30:00Z,26.4345,-81.9647,1014.3,1111122 
SCCF RECON,ioos:station:SCCF:16:1,2017-11-10T21:30:00Z,26.4345,-81.9647,1014.6,1111122 
SCCF RECON,ioos:station:SCCF:16:1,2017-11-10T22:30:00Z,26.4345,-81.9647,1015.3,1111122 
SCCF RECON,ioos:station:SCCF:16:1,2017-11-11T05:30:00Z,26.4345,-81.9647,1017.6,1111122 
SCCF RECON,ioos:station:SCCF:16:1,2017-11-11T06:30:00Z,26.4345,-81.9647,1017.1,1111122 
SCCF RECON,ioos:station:SCCF:16:1,2017-11-11T07:30:00Z,26.4345,-81.9647,1016.8,1111122 
SCCF RECON,ioos:station:SCCF:16:1,2017-11-11T08:30:00Z,26.4345,-81.9647,1016.9,1111122 
SCCF RECON,ioos:station:SCCF:16:1,2017-11-11T09:30:00Z,26.4345,-81.9647,1017.1,1111122 
SCCF RECON,ioos:station:SCCF:16:1,2017-11-11T10:30:00Z,26.4345,-81.9647,1017.4,1111122 
SCCF RECON,ioos:station:SCCF:16:1,2017-11-11T11:30:00Z,26.4345,-81.9647,1017.9,1111122 
SCCF RECON,ioos:station:SCCF:16:1,2017-11-11T12:30:00Z,26.4345,-81.9647,1018.6,1111122 
SCCF RECON,ioos:station:SCCF:16:1,2017-11-11T13:30:00Z,26.4345,-81.9647,1018.9,1111122 
SCCF RECON,ioos:station:SCCF:16:1,2017-11-11T14:30:00Z,26.4345,-81.9647,1019.2,1111122 
SCCF RECON,ioos:station:SCCF:16:1,2017-11-11T15:30:00Z,26.4345,-81.9647,1019.0,1111122 
SCCF RECON,ioos:station:SCCF:16:1,2017-11-11T16:30:00Z,26.4345,-81.9647,1018.9,1111122 
SCCF RECON,ioos:station:SCCF:16:1,2017-11-11T17:30:00Z,26.4345,-81.9647,1017.9,1111122 
SCCF RECON,ioos:station:SCCF:16:1,2017-11-11T18:30:00Z,26.4345,-81.9647,1016.9,1111122 
SCCF RECON,ioos:station:SCCF:16:1,2017-11-11T19:30:00Z,26.4345,-81.9647,1016.3,1111122 
SCCF RECON,ioos:station:SCCF:16:1,2017-11-11T20:30:00Z,26.4345,-81.9647,1016.3,1111122 
SCCF RECON,ioos:station:SCCF:16:1,2017-11-11T21:30:00Z,26.4345,-81.9647,1016.6,1111122 
SCCF RECON,ioos:station:SCCF:16:1,2017-11-11T22:30:00Z,26.4345,-81.9647,1016.9,1111122 
SCCF RECON,ioos:station:SCCF:16:1,2017-11-12T05:30:00Z,26.4345,-81.9647,1018.1,1111122 
SCCF RECON,ioos:station:SCCF:16:1,2017-11-12T06:30:00Z,26.4345,-81.9647,1017.9,1111122 
SCCF RECON,ioos:station:SCCF:16:1,2017-11-12T07:30:00Z,26.4345,-81.9647,1017.4,1111122 
SCCF RECON,ioos:station:SCCF:16:1,2017-11-12T08:30:00Z,26.4345,-81.9647,1017.6,1111122 
SCCF RECON,ioos:station:SCCF:16:1,2017-11-12T09:30:00Z,26.4345,-81.9647,1017.6,1111122 
SCCF RECON,ioos:station:SCCF:16:1,2017-11-12T10:30:00Z,26.4345,-81.9647,1018.2,1111122 
SCCF RECON,ioos:station:SCCF:16:1,2017-11-12T11:30:00Z,26.4345,-81.9647,1018.6,1111122 
SCCF RECON,ioos:station:SCCF:16:1,2017-11-12T12:30:00Z,26.4345,-81.9647,1019.1,1111122 
SCCF RECON,ioos:station:SCCF:16:1,2017-11-12T13:30:00Z,26.4345,-81.9647,1019.1,1111122 
SCCF RECON,ioos:station:SCCF:16:1,2017-11-12T14:30:00Z,26.4345,-81.9647,1019.2,1111122 
SCCF RECON,ioos:station:SCCF:16:1,2017-11-12T15:30:00Z,26.4345,-81.9647,1019.0,1111122 
SCCF RECON,ioos:station:SCCF:16:1,2017-11-12T16:30:00Z,26.4345,-81.9647,1018.6,1111122 
SCCF RECON,ioos:station:SCCF:16:1,2017-11-12T17:30:00Z,26.4345,-81.9647,1017.4,1111122 
SCCF RECON,ioos:station:SCCF:16:1,2017-11-12T18:30:00Z,26.4345,-81.9647,1016.8,1111122 
SCCF RECON,ioos:station:SCCF:16:1,2017-11-12T19:30:00Z,26.4345,-81.9647,1016.3,1111122 
SCCF RECON,ioos:station:SCCF:16:1,2017-11-12T20:30:00Z,26.4345,-81.9647,1016.3,1111122 
SCCF RECON,ioos:station:SCCF:16:1,2017-11-12T21:30:00Z,26.4345,-81.9647,1015.9,1111122 
SCCF RECON,ioos:station:SCCF:16:1,2017-11-12T22:30:00Z,26.4345,-81.9647,1016.9,1111122 
SCCF RECON,ioos:station:SCCF:16:1,2017-11-13T05:30:00Z,26.4345,-81.9647,1018.5,1111122 
SCCF RECON,ioos:station:SCCF:16:1,2017-11-13T06:30:00Z,26.4345,-81.9647,1018.1,1111122 
SCCF RECON,ioos:station:SCCF:16:1,2017-11-13T07:30:00Z,26.4345,-81.9647,1016.9,1111122 
SCCF RECON,ioos:station:SCCF:16:1,2017-11-13T08:30:00Z,26.4345,-81.9647,1016.8,1111122 
SCCF RECON,ioos:station:SCCF:16:1,2017-11-13T09:30:00Z,26.4345,-81.9647,1016.6,1111122 
SCCF RECON,ioos:station:SCCF:16:1,2017-11-13T10:30:00Z,26.4345,-81.9647,1016.8,1111122 
SCCF RECON,ioos:station:SCCF:16:1,2017-11-13T11:30:00Z,26.4345,-81.9647,1017.3,1111122 
SCCF RECON,ioos:station:SCCF:16:1,2017-11-13T12:30:00Z,26.4345,-81.9647,1017.4,1111122 
SCCF RECON,ioos:station:SCCF:16:1,2017-11-13T13:30:00Z,26.4345,-81.9647,1017.7,1111122 
SCCF RECON,ioos:station:SCCF:16:1,2017-11-13T14:30:00Z,26.4345,-81.9647,1018.4,1111122 
SCCF RECON,ioos:station:SCCF:16:1,2017-11-13T15:30:00Z,26.4345,-81.9647,1018.2,1111122 
SCCF RECON,ioos:station:SCCF:16:1,2017-11-13T16:30:00Z,26.4345,-81.9647,1017.4,1111122 
SCCF RECON,ioos:station:SCCF:16:1,2017-11-13T17:30:00Z,26.4345,-81.9647,1016.3,1111122 
SCCF RECON,ioos:station:SCCF:16:1,2017-11-13T18:30:00Z,26.4345,-81.9647,1016.3,1111122 
SCCF RECON,ioos:station:SCCF:16:1,2017-11-13T19:30:00Z,26.4345,-81.9647,1015.3,1111122 
SCCF RECON,ioos:station:SCCF:16:1,2017-11-13T20:30:00Z,26.4345,-81.9647,1015.1,1111122 
SCCF RECON,ioos:station:SCCF:16:1,2017-11-13T21:30:00Z,26.4345,-81.9647,1015.3,1111122 
SCCF RECON,ioos:station:SCCF:16:1,2017-11-13T23:00:00Z,26.4345,-81.9647,1015.5,1111122 
SCCF RECON,ioos:station:SCCF:16:1,2017-11-14T05:30:00Z,26.4345,-81.9647,1015.8,1111122 
SCCF RECON,ioos:station:SCCF:16:1,2017-11-14T06:30:00Z,26.4345,-81.9647,1015.5,1111122 
SCCF RECON,ioos:station:SCCF:16:1,2017-11-14T07:30:00Z,26.4345,-81.9647,1015.3,1111122 
SCCF RECON,ioos:station:SCCF:16:1,2017-11-14T08:30:00Z,26.4345,-81.9647,1015.1,1111122 
SCCF RECON,ioos:station:SCCF:16:1,2017-11-14T09:30:00Z,26.4345,-81.9647,1015.1,1111122 
SCCF RECON,ioos:station:SCCF:16:1,2017-11-14T10:30:00Z,26.4345,-81.9647,1015.3,1111122 
SCCF RECON,ioos:station:SCCF:16:1,2017-11-14T11:30:00Z,26.4345,-81.9647,1016.0,1111122 
SCCF RECON,ioos:station:SCCF:16:1,2017-11-14T12:30:00Z,26.4345,-81.9647,1016.5,1111122 
SCCF RECON,ioos:station:SCCF:16:1,2017-11-14T13:30:00Z,26.4345,-81.9647,1016.4,1111122 
SCCF RECON,ioos:station:SCCF:16:1,2017-11-14T14:30:00Z,26.4345,-81.9647,1016.3,1111122 
SCCF RECON,ioos:station:SCCF:16:1,2017-11-14T15:30:00Z,26.4345,-81.9647,1016.0,1111122 
SCCF RECON,ioos:station:SCCF:16:1,2017-11-14T16:30:00Z,26.4345,-81.9647,1015.3,1111122 
SCCF RECON,ioos:station:SCCF:16:1,2017-11-14T17:30:00Z,26.4345,-81.9647,1014.1,1111122 
SCCF RECON,ioos:station:SCCF:16:1,2017-11-14T18:30:00Z,26.4345,-81.9647,1013.0,1111122 
SCCF RECON,ioos:station:SCCF:16:1,2017-11-14T19:30:00Z,26.4345,-81.9647,1012.5,1111122 
SCCF RECON,ioos:station:SCCF:16:1,2017-11-14T20:30:00Z,26.4345,-81.9647,1012.0,1111122 
SCCF RECON,ioos:station:SCCF:16:1,2017-11-14T21:30:00Z,26.4345,-81.9647,1011.7,1111122 
SCCF RECON,ioos:station:SCCF:16:1,2017-11-14T22:30:00Z,26.4345,-81.9647,1012.0,1111122 
SCCF RECON,ioos:station:SCCF:16:1,2017-11-15T05:30:00Z,26.4345,-81.9647,1013.9,1111122 
SCCF RECON,ioos:station:SCCF:16:1,2017-11-15T06:30:00Z,26.4345,-81.9647,1013.7,1111122 
SCCF RECON,ioos:station:SCCF:16:1,2017-11-15T07:30:00Z,26.4345,-81.9647,1013.0,1111122 
SCCF RECON,ioos:station:SCCF:16:1,2017-11-15T08:30:00Z,26.4345,-81.9647,1012.8,1111122 
SCCF RECON,ioos:station:SCCF:16:1,2017-11-15T09:30:00Z,26.4345,-81.9647,1012.7,1111122 
SCCF RECON,ioos:station:SCCF:16:1,2017-11-15T10:30:00Z,26.4345,-81.9647,1013.0,1111122 
SCCF RECON,ioos:station:SCCF:16:1,2017-11-15T11:30:00Z,26.4345,-81.9647,1013.7,1111122 
SCCF RECON,ioos:station:SCCF:16:1,2017-11-15T12:30:00Z,26.4345,-81.9647,1014.2,1111122 
SCCF RECON,ioos:station:SCCF:16:1,2017-11-15T13:30:00Z,26.4345,-81.9647,1014.9,1111122 
SCCF RECON,ioos:station:SCCF:16:1,2017-11-15T14:30:00Z,26.4345,-81.9647,1014.8,1111122 
SCCF RECON,ioos:station:SCCF:16:1,2017-11-15T15:30:00Z,26.4345,-81.9647,1014.8,1111122 
SCCF RECON,ioos:station:SCCF:16:1,2017-11-15T16:30:00Z,26.4345,-81.9647,1014.3,1111122 
SCCF RECON,ioos:station:SCCF:16:1,2017-11-15T17:30:00Z,26.4345,-81.9647,1013.3,1111122 
SCCF RECON,ioos:station:SCCF:16:1,2017-11-15T18:30:00Z,26.4345,-81.9647,1012.3,1111122 
SCCF RECON,ioos:station:SCCF:16:1,2017-11-15T19:30:00Z,26.4345,-81.9647,1012.0,1111122 
SCCF RECON,ioos:station:SCCF:16:1,2017-11-15T20:30:00Z,26.4345,-81.9647,1011.9,1111122 